Location: Heiligenberg
(48.5381°N, 7.3897°E)
Time: 23:15:06
(UTC+00:00)

USA 308 - Pass Details

Date: 26 May 2022
Orbit: 549 x 558 km, 54.0° (Epoch: 14 June)

Event Time Altitude Azimuth Distance (km) Brightness Sun altitude
Exits shadow 00:40:53 45° 190° (S) 762 3.0 -18.5°
Maximum altitude 00:41:46 56° 144° (SE) 668 3.0 -18.4°
Drops below altitude 10° 00:45:55 10° 66° (ENE) 1,864 6.1 -18.2°
Sets 00:48:10 0° 63° (ENE) 2,751 7.1 -18.1°
